Flag for United Kingdom Weather past 2 weeks in London, England, United Kingdom

Now
57 °F

Broken clouds.


Feels Like: 55 °F
Forecast: 50 / 61 °F
Wind: 8 mph from Northwest

Location: Northolt

Current Time: Sep 4, 2015 at 11:50:19 AM

Latest Report: Sep 4, 2015 at 10:50 AM


Visibility: N/A

Pressure: 30.07 "Hg

Humidity: 72%

Dew point: 48 °F

Location of LondonLocation

Historic Weather in London — Graph

°F

London temperature yesterday

Maximum temperature yesterday: 61 °F (at 4:50 PM)
Minimum temperature yesterday: 48 °F (at 4:50 AM)
Average temperature yesterday: 54 °F

Past Weeks' High & Low Weather Summary

 TemperatureHumidityPressure
High86 °F (Aug 22, 1:50 PM)100% (Aug 22, 3:50 AM)30.12 "Hg (Aug 22, 3:50 AM)
Low46 °F (Sep 2, 4:50 AM)38% (Aug 22, 3:50 PM)29.42 "Hg (Aug 24, 12:50 PM)
Average61 °F80%29.90 "Hg
* Reported Aug 20 9:50 AM — Sep 4 9:50 AM, London, Weather by CustomWeather, © 2015

Note: Actual official high and low records may vary slightly from our data, if they occured in-between our weather recording intervals... More about our weather records

Advertising

London weather history for previous 24 hours

 ConditionsComfort  
Time TempWeatherWind HumidityBarometerVisibility
9:50 AM
Fri, Sep 4
57 °FBroken clouds.8 mph72%30.07 "HgN/A
8:50 AM55 °FBroken clouds.3 mph77%30.04 "HgN/A
7:50 AM54 °FPartly sunny.5 mph82%30.04 "HgN/A
6:50 AM52 °FPartly cloudy.2 mph88%30.04 "HgN/A
5:50 AM52 °FPassing clouds.5 mph82%30.01 "HgN/A
4:50 AM52 °FClear.5 mph82%30.01 "Hg10 mi
3:50 AM52 °FPassing clouds.6 mph82%30.01 "HgN/A
2:50 AM50 °FPassing clouds.6 mph82%30.01 "HgN/A
1:50 AM52 °FPassing clouds.6 mph77%30.01 "HgN/A
12:50 AM52 °FClear.5 mph82%30.04 "Hg10 mi
11:50 PM
Thu, Sep 3
54 °FClear.7 mph72%30.01 "Hg10 mi
10:50 PM54 °FClear.5 mph77%30.01 "Hg10 mi
9:50 PM54 °FPartly cloudy.3 mph77%30.01 "HgN/A
8:50 PM54 °FClear.2 mph82%30.01 "Hg10 mi
7:50 PM54 °FBroken clouds.6 mph82%30.01 "HgN/A
6:50 PM54 °FSprinkles. Broken clouds.12 mph82%30.01 "HgN/A
5:50 PM57 °FBroken clouds.8 mph63%29.98 "HgN/A
4:50 PM61 °FBroken clouds.6 mph55%29.98 "HgN/A
3:50 PM59 °FPartly sunny.8 mph55%29.98 "HgN/A
2:50 PM59 °FBroken clouds.10 mph59%29.98 "HgN/A
1:50 PM59 °FPartly sunny.10 mph59%29.98 "HgN/A
12:50 PM59 °FScattered clouds.8 mph63%29.98 "HgN/A
11:50 AM57 °FBroken clouds.10 mph67%29.98 "HgN/A
Weather by CustomWeather, © 2015

See weather overviewHow to use our weather pages